Regional Weather Roundup
Issued by NWS Wakefield, VA

Home | Current Version | Previous Version | Text Only | Print | Product List | Glossary Off
Versions: 1 2 3 4 5 6 7 8 9 10 11 12 13 14 15 16 17 18 19 20 21 22 23 24 25 26 27 28 29 30 31 32 33 34 35 36 37 38 39 40 41 42 43 44 45 46 47 48 49

000
ASUS41 KAKQ 291513
RWRAKQ

REGIONAL WEATHER ROUNDUP
NATIONAL WEATHER SERVICE WAKEFIELD VA
1100 AM EDT SAT AUG 29 2015

Note: "fair" indicates few or no clouds below 12,000 feet with no
significant weather and/or obstructions to visibility. * = Denotes
station may not report precipitation (e.g., rain,snow,etc.),
thunder or fog.

VAZ042-051-052>054-056-291600-
NORTHERN VIRGINIA

CITY           SKY/WX    TMP DP  RH WIND       PRES   REMARKS
WASH NATIONAL  PTSUNNY   81  61  50 S13       30.22S
DULLES         MOSUNNY   77  62  59 S8        30.21S
FORT BELVOIR   SUNNY     79  61  52 S8        30.21F
QUANTICO       MOSUNNY   77  61  57 SW14      30.23S
FREDERICKSBRG* SUNNY     82  60  46 S9        30.22S
STAFFORD*      SUNNY     80  59  48 S10       30.26S
WARRENTON      MOSUNNY   81  65  59 S9        30.22R
CULPEPER*      MOSUNNY   77  63  63 S7        30.22S
MANASSAS*      SUNNY     79  63  57 MISG      30.21F
LEESBURG*      SUNNY     79  68  69 S3        30.23S
WINCHESTER     SUNNY     82  59  44 S9        30.21R
FRONT ROYAL*   FAIR      79  61  53 SW7       30.20S
LURAY*         FAIR      81  59  47 S9        30.22S
$$

VAZ048-049-060>072-079>083-291600-
CENTRAL AND SOUTH CENTRAL VIRGINIA

CITY           SKY/WX    TMP DP  RH WIND       PRES   REMARKS
RICHMOND       PTSUNNY   81  61  50 SE5       30.24S
CHESTERFIELD*  FAIR      79  55  44 S7        30.25F
PETERSBURG*    SUNNY     80  66  62 E5        30.25F
HANOVER        SUNNY     78  61  55 VRB6      30.25F
TAPPAHANNOCK*  SUNNY     80  59  49 S7        30.25R
QUINTON*       FAIR      78  63  60 SE5       30.24S
CHARLOTTSVILLE MOSUNNY   75  63  66 S7        30.23R
GORDONSVILLE*  FAIR      78  63  58 SW10      30.22S
ORANGE*        MOSUNNY   81  63  54 S8        30.23F
LOUISA*        MOSUNNY   81  63  54 SW7       30.22F
BUMPASS*       FAIR      79  62  56 CALM      30.23F
FARMVILLE*     SUNNY     80  59  47 S8        30.23S
CREWE*         FAIR     N/A N/A N/A SW6       30.25S
FORT PICKETT*  FAIR      77  60  55 S7        30.25F
CHASE CITY*    FAIR      81  62  52 CALM      30.25S
CLARKSVILLE*   FAIR      77  61  57 SE3       30.25S
SOUTH HILL*    SUNNY     76  62  61 CALM      30.30F
LAWRENCEVILLE* FAIR      77  63  61 SE3       30.24F
EMPORIA*       SUNNY     77  61  57 NE3       30.25F
$$

VAZ088>098-291600-
SOUTHEAST VIRGINIA

CITY           SKY/WX    TMP DP  RH WIND       PRES   REMARKS
NORFOLK        SUNNY     81  57  43 NE12      30.23S
VIRGINIA BEACH MOSUNNY   82  61  48 E10       30.23R
NORFOLK NAVAL  MOSUNNY   80  60  50 E12       30.25S
WEST POINT*    SUNNY     82  60  46 S7        30.26S
SALUDA*        FAIR      76  67  72 N6        30.24S
NEWPORT NEWS   SUNNY     81  58  45 E8        30.24S
LANGLEY AFB    SUNNY     80  61  51 NE7       30.23S
FORT EUSTIS    SUNNY     81  62  52 VRB2      30.22S
WILLIAMSBURG*  SUNNY     82  64  54 CALM      30.25S
HR EXEC AP*      N/A     82  63  51 NE6       30.25S
FRANKLIN*      SUNNY     80  62  54 E7        30.24S
WAKEFIELD      SUNNY     80  62  54 CALM      30.25S
$$

VAZ020-022-025-037-045-291600-
WEST CENTRAL AND SOUTHWEST VIRGINIA

CITY           SKY/WX    TMP DP  RH WIND       PRES   REMARKS
STAUNTON*      SUNNY     81  60  48 S5        30.26S
WAYNESBORO*    FAIR      81  59  47 W6        30.25S
HOT SPRINGS VA SUNNY     69  59  68 W6        30.35R
LYNCHBURG      MOSUNNY   77  61  57 S9        30.26S
DANVILLE       MOSUNNY   78  61  55 VRB3      30.25S
SOUTH BOSTON*  FAIR      78  58  50 CALM      30.25S
MARTINSVILLE   MOSUNNY   79  61  54 S3        30.28S
ROANOKE        PTSUNNY   73  60  63 CALM      30.28R
BLACKSBURG     CLOUDY    72  64  75 CALM      30.33R
DUBLIN*        CLOUDY    73  63  71 CALM      30.32R
MARION*        PTSUNNY   74  58  59 CALM      30.34R
HILLSVILLE*    PTSUNNY   69  59  72 SW5       30.31S
RICHLANDS*     PTSUNNY   74  23  14 S3        30.31S
WISE*          PTSUNNY   75  57  53 SW3       30.32R
ABINGDON*      PTSUNNY   76  59  55 SE3       30.30R
$$

MDZ021>025-VAZ099-100-291600-
SOUTHERN MARYLAND AND THE DELMARVA PENINSULA

CITY           SKY/WX    TMP DP  RH WIND       PRES   REMARKS
PATUXENT RIVER PTSUNNY   79  62  56 S5        30.23S
BAY BRIDGE APT   N/A     79  57  47 S6        30.23R
LEONARDTOWN    SUNNY     77  59  53 CALM      30.25S
DOVER          SUNNY     80  64  59 VRB5      30.22S
GEORGETOWN     MOSUNNY   79  59  50 CALM      30.24S
EASTON         SUNNY     81  64  57 SW9       30.26S
CAMBRIDGE      SUNNY     79  63  57 SW5       30.23S
SALISBURY      SUNNY     79  60  52 SE5       30.24R
OCEAN CITY     SUNNY     79  59  50 SE7       30.24S
WALLOPS ISLAND SUNNY     80  59  48 MISG      30.25S
ACCOMACK*      SUNNY     77  39  25 S6        30.25R
$$

NCZ012>017-030>032-291600-
NORTH CENTRAL AND EASTERN NORTH CAROLINA

CITY           SKY/WX    TMP DP  RH WIND       PRES   REMARKS
ROANOKE RAPIDS FAIR      79  61  53 NE5       30.24S
RALEIGH        PTSUNNY   79  61  53 E5        30.25R
ELIZABETH CITY SUNNY     82  61  48 NE14      30.22S
AHOSKIE*       MOSUNNY   78  60  54 NE5       30.24S
EDENTON*       SUNNY     79  63  57 NE9       30.22S
CURRITUCK*     SUNNY     80  57  45 NE10      30.23F
KILL DEVIL HLS PTSUNNY   81  67  60 NE6G17    30.21R
MANTEO         SUNNY     78  68  69 NE15G22   30.21S
CAPE HATTERAS  PTSUNNY   79  73  82 NE12G20   30.17R
TARBORO*       FAIR      82  61  49 NE3       30.24S
GOLDSBORO      MOSUNNY   80  62  54 NE9       30.21S
WASHINGTON     SUNNY     79  64  59 NE7       30.21S
GREENVILLE     SUNNY     81  61  50 NE8       30.23S
NEW BERN       SUNNY     80  65  59 NE13      30.21R
WILMINGTON     MOSUNNY   81  68  64 NE10      30.19R
$$

VAZ048-291600-
ELSEWHERE

CITY           SKY/WX    TMP DP  RH WIND       PRES   REMARKS
HARRISBURG PA  PTSUNNY   76  61  59 SE6       30.20S
BALTIMORE      MOSUNNY   79  61  53 S6        30.21S
ANNAPOLIS      SUNNY     79  59  50 SW7       30.22R
ANDREWS AFB    SUNNY     82  59  45 S12       30.21F
PHILADELPHIA   MOSUNNY   80  59  48 W8        30.23S
HENDERSON NC   MOSUNNY   79  56  44 E3        30.25S
GREENSBORO     CLOUDY    77  61  57 W5        30.26R
ROCKY MOUNT    SUNNY     83  57  41 NE8       30.23F
$$

VAZ100-291600-
MARINE

STATION/POSITION TIME  TEMP    WIND        PRES    WAVE   SWELL
                       AIR SEA DIR/SP/G            HT/PER HT/PER
                 (UTC) (F)     (DEG/KT/KT) (MB)    (FT/S) (FT/S)
15NM E FENWICK I 1450   75 78  280/  2/  4 1024.5R   3/11   3/11
CHESAPEAKE LGHT  1400   76      60/ 11/ 12 1024.2R
CAPE HENRY BUOY  1428      78                N/A     3/11   2/11
CAPE CHARLES BUO 1426      78                N/A     3/11   3/11
OFFSHORE WE BUOY 1411      78                N/A     3/10   3/10
64NM E OF VA BCH 1450   76 77   40/ 12/ 16 1022.9R   4/11   3/11
44100 DUCK FRF   1424      77                N/A     4/12   2/12
44056 DUCK FRF   1411      78                N/A     4/11   2/11
DIAMOND SHLS NC  1450   79 83   30/ 16/ 17 1021.0R   5/11   3/11
CAPE LOOKOUT NC  1500   80      30/ 18/ 22 1021.1R
$$


USA.gov is the U.S. government's official web portal to all federal, state and local government web resources and services.